Weather History for Phoenix-Mesa Gateway Airport, AZ

Change the Weather History Date:

Friday, September 13, 2013

  Actual Average Record
Temperature  
Mean Temperature 86 °F -  
Max Temperature 98 °F 98 °F 107 °F (2000)
Min Temperature 75 °F 74 °F 66 °F (2005)
Cooling Degree Days 22    
Growing Degree Days 36 (Base 50)    
Moisture  
Dew Point 62 °F    
Average Humidity 48    
Maximum Humidity 61    
Minimum Humidity 25    
Precipitation  
Precipitation 0.00 in - - ()
Sea Level Pressure  
Sea Level Pressure 29.74 in    
Wind  
Wind Speed 4 mph (ESE)    
Max Wind Speed 7 mph    
Max Gust Speed -    
Visibility 12 miles    
Events      
Averages and records for this station are not official NWS values.
T = Trace of Precipitation, MM = Missing Value Source: NWS Daily Summary

Daily Weather History Graph

Daily Weather History Graph

Search for Another Location

Airport:

Trip Planner

Search our weather history database for the weather conditions in past years. The results will help you decide how hot, cold, wet, or windy it might be!

Date:

Astronomy

Sep. 13, 2013 Rise Set
Actual Time 6:08 AM MST 6:35 PM MST
Civil Twilight 5:44 AM MST 7:00 PM MST
Nautical Twilight 5:14 AM MST 7:29 PM MST
Astronomical Twilight 4:45 AM MST 7:58 PM MST
Moon 2:15 PM MST (9/13) No Moon Set
Length of Visible Light 13h 16m
Length of Day
12h 26m
Waxing Gibbous, 62% of the Moon is Illuminated
Sep 13
Waxing Gibbous
Sep 19
Full
Sep 26
Last Quarter
Oct 4
New
Oct 11
First Quarter

Hourly Weather History & Observations

Time (MST) Temp. Heat Index Dew Point Humidity Pressure Visibility Wind Dir Wind Speed Gust Speed Precip Events Conditions
12:15 AM 78.8 °F - 57.2 °F 47% 29.80 in 10.0 mi South 4.6 mph - N/A   Clear
12:35 AM 78.8 °F - 57.2 °F 47% 29.80 in 10.0 mi SSE 4.6 mph - N/A   Clear
12:55 AM 78.8 °F - 55.4 °F 44% 29.80 in 10.0 mi SE 5.8 mph - N/A   Clear
1:15 AM 78.8 °F - 57.2 °F 47% 29.80 in 10.0 mi SE 6.9 mph - N/A   Clear
1:35 AM 78.8 °F - 57.2 °F 47% 29.80 in 10.0 mi East 5.8 mph - N/A   Scattered Clouds
1:55 AM 78.8 °F - 59.0 °F 51% 29.80 in 10.0 mi East 5.8 mph - N/A   Scattered Clouds
2:15 AM 78.8 °F - 57.2 °F 47% 29.79 in 10.0 mi ESE 5.8 mph - N/A   Scattered Clouds
2:35 AM 78.8 °F - 59.0 °F 51% 29.78 in 10.0 mi ESE 5.8 mph - N/A   Clear
2:55 AM 78.8 °F - 59.0 °F 51% 29.78 in 10.0 mi East 5.8 mph - N/A   Clear
3:15 AM 78.8 °F - 60.8 °F 54% 29.78 in 10.0 mi East 3.5 mph - N/A   Clear
3:35 AM 78.8 °F - 59.0 °F 51% 29.78 in 10.0 mi SE 3.5 mph - N/A   Clear
3:55 AM 75.2 °F - 59.0 °F 57% 29.78 in 10.0 mi ESE 3.5 mph - N/A   Scattered Clouds
4:15 AM 75.2 °F - 60.8 °F 61% 29.78 in 10.0 mi Calm Calm - N/A   Scattered Clouds
4:35 AM 77.0 °F - 60.8 °F 57% 29.78 in 10.0 mi Calm Calm - N/A   Mostly Cloudy
4:47 AM 78.8 °F - 62.6 °F 57% 29.78 in 20.0 mi ESE 4.6 mph - N/A   Partly Cloudy
4:55 AM 78.8 °F - 62.6 °F 57% 29.78 in 10.0 mi Calm Calm - N/A   Scattered Clouds
5:15 AM 78.8 °F - 62.6 °F 57% 29.78 in 10.0 mi Calm Calm - N/A   Clear
5:35 AM 78.8 °F - 62.6 °F 57% 29.78 in 10.0 mi NE 3.5 mph - N/A   Clear
5:47 AM 78.8 °F - 64.4 °F 61% 29.79 in 20.0 mi SSE 3.5 mph - N/A   Scattered Clouds
6:47 AM 78.8 °F - 64.4 °F 61% 29.79 in 45.0 mi SE 4.6 mph - N/A   Mostly Cloudy
7:55 AM 80.6 °F 82.3 °F 64.4 °F 58% 29.80 in 35.0 mi ESE 4.6 mph - N/A   Mostly Cloudy
8:47 AM 84.2 °F 85.6 °F 64.4 °F 51% 29.80 in 35.0 mi Variable 4.6 mph - N/A   Scattered Clouds
9:47 AM 87.8 °F 88.5 °F 62.6 °F 43% 29.80 in 35.0 mi Calm Calm - N/A   Scattered Clouds
10:50 AM 91.4 °F 92.1 °F 62.6 °F 38% 29.70 in 35.0 mi Calm Calm - N/A   Scattered Clouds
11:47 AM 93.2 °F 94.1 °F 62.6 °F 36% 29.76 in 35.0 mi Variable 3.5 mph - N/A   Mostly Cloudy
12:47 PM 93.2 °F 93.3 °F 60.8 °F 34% 29.73 in 35.0 mi Variable 4.6 mph - N/A   Mostly Cloudy
1:47 PM 96.8 °F 97.1 °F 60.8 °F 30% 29.70 in 35.0 mi WNW 4.6 mph - N/A   Mostly Cloudy
2:47 PM 98.6 °F 99.4 °F 60.8 °F 29% 29.66 in 30.0 mi North 6.9 mph - N/A   Mostly Cloudy
3:47 PM 98.6 °F 99.4 °F 60.8 °F 29% 29.66 in 30.0 mi Variable 3.5 mph - N/A   Mostly Cloudy
4:47 PM 98.6 °F 97.6 °F 57.2 °F 25% 29.65 in 30.0 mi East 5.8 mph - N/A   Scattered Clouds
6:47 PM 93.2 °F 91.3 °F 55.4 °F 28% 29.65 in 20.0 mi East 5.8 mph - N/A   Scattered Clouds
7:47 PM 91.4 °F 92.1 °F 62.6 °F 38% 29.66 in 20.0 mi East 5.8 mph - N/A   Partly Cloudy
7:55 PM 89.6 °F 90.1 °F 62.6 °F 40% 29.67 in 10.0 mi SE 3.5 mph - N/A   Clear
8:15 PM 86.0 °F 86.6 °F 62.6 °F 45% 29.67 in 10.0 mi SE 4.6 mph - N/A   Clear
8:35 PM 86.0 °F 86.6 °F 62.6 °F 45% 29.68 in 10.0 mi ESE 4.6 mph - N/A   Clear
8:47 PM 87.8 °F 88.5 °F 62.6 °F 43% 29.68 in 20.0 mi East 4.6 mph - N/A   Partly Cloudy
8:55 PM 86.0 °F 86.6 °F 62.6 °F 45% 29.68 in 10.0 mi East 3.5 mph - N/A   Clear
9:15 PM 86.0 °F 86.6 °F 62.6 °F 45% 29.68 in 10.0 mi Calm Calm - N/A   Clear
9:35 PM 82.4 °F 83.9 °F 64.4 °F 54% 29.69 in 10.0 mi Calm Calm - N/A   Clear
9:47 PM 84.2 °F 85.6 °F 64.4 °F 51% 29.69 in 20.0 mi SE 5.8 mph - N/A   Partly Cloudy
9:55 PM 82.4 °F 83.9 °F 64.4 °F 54% 29.69 in 10.0 mi SSE 3.5 mph - N/A   Clear
10:15 PM 82.4 °F 83.9 °F 64.4 °F 54% 29.69 in 10.0 mi Calm Calm - N/A   Clear
10:35 PM 82.4 °F 83.4 °F 62.6 °F 51% 29.70 in 10.0 mi SE 3.5 mph - N/A   Clear
10:47 PM 84.2 °F 85.6 °F 64.4 °F 51% 29.70 in 20.0 mi East 4.6 mph - N/A   Partly Cloudy
10:55 PM 82.4 °F 83.9 °F 64.4 °F 54% 29.70 in 10.0 mi ESE 3.5 mph - N/A   Clear
11:15 PM 82.4 °F 83.9 °F 64.4 °F 54% 29.70 in 10.0 mi Calm Calm - N/A   Clear
11:35 PM 82.4 °F 83.9 °F 64.4 °F 54% 29.70 in 10.0 mi East 4.6 mph - N/A   Clear
11:47 PM 84.2 °F 86.6 °F 66.2 °F 55% 29.70 in 20.0 mi Calm Calm - N/A   Partly Cloudy
11:55 PM 82.4 °F 83.4 °F 62.6 °F 51% 29.70 in 10.0 mi Calm Calm - N/A   Clear